User: anonymous   Login
Location: Meanaryar
(48.4161°N, 4.7315°W)
Time: 18:51:24
(UTC+00:00)
Language:

Okean 1 Rocket - Orbit

View from above orbital plane
View from above orbital plane
View from above satellite
View from above satellite

Ground track
Ground track

The orbit data is extracted from the following two-line orbital elements,

1 19275U 88056B   21163.17292447  .00000089  00000-0  79189-5 0  9996
2 19275  82.5170  48.2412 0021620  90.7315 269.6377 14.82793488757920
Epoch (UTC): 12 June 2021 04:09:00
Eccentricity: 0.0021620
inclination: 82.5170°
perigee height: 605 km
apogee height: 635 km
right ascension of ascending node: 48.2412°
argument of perigee: 90.7315°
revolutions per day: 14.82793488
mean anomaly at epoch: 269.6377°
orbit number at epoch: 75792

The dashed part of the orbit path shows where the satellite is in the earth's shadow,  

DLR